KLM588 DNMM-EHAM

Flight info

Callsign KLM588
Flight time N/A
Altitude 35000
Route BUDSI1Q BUDSI UB731 KIGRA UY333 MIGNI DCT EREBO/N0490F360 UA604 TMS/N0486F370 UZ111 OPRIC/N0486F360 UZ111 IPDAK UM508 ROANE/N0479F380 UM508 KAMER DCT NAFOQ DCT SURJU DCT PADKO DCT MOPEM DCT SIZZA DCT ENORI DCT MEDIL DCT FERDI/N0452F240 Y18 DENUT
Aircraft B77W/H-SDE1E2E3FGHIJ2J3J4J5M1RWXY/LB1D1

Departure

Time 2026-05-04 11:55
Airport Murtala Muhammed International Airport (DNMM)

Arrival

Time N/A
Airport Amsterdam Airport Schiphol (EHAM)
Time Latitude Longitude Altitude Speed Heading
2026-05-04 11:17 6.57935 3.31925 103 ft 0 kts 67°
2026-05-04 11:46 6.57932 3.31918 102 ft 4 kts 65°
2026-05-04 11:46 6.57919 3.31896 102 ft 4 kts 45°
2026-05-04 11:46 6.57898 3.31886 100 ft 4 kts 352°
2026-05-04 11:46 6.57877 3.31893 99 ft 0 kts 318°
2026-05-04 11:49 6.57878 3.31892 99 ft 2 kts 318°
2026-05-04 11:50 6.57910 3.31863 101 ft 8 kts 318°
2026-05-04 11:50 6.57958 3.31831 104 ft 8 kts 334°
2026-05-04 11:50 6.58012 3.31807 104 ft 10 kts 337°
2026-05-04 11:50 6.58091 3.31774 104 ft 13 kts 329°
2026-05-04 11:51 6.58104 3.31693 103 ft 13 kts 248°
2026-05-04 11:51 6.58071 3.31608 103 ft 13 kts 253°
2026-05-04 11:51 6.58101 3.31532 104 ft 13 kts 333°
2026-05-04 11:51 6.58191 3.31524 106 ft 13 kts
2026-05-04 11:52 6.58282 3.31524 106 ft 13 kts
2026-05-04 11:52 6.58373 3.31523 107 ft 13 kts 359°
2026-05-04 11:52 6.58464 3.31521 107 ft 13 kts 359°
2026-05-04 11:52 6.58555 3.31520 107 ft 13 kts 359°
2026-05-04 11:53 6.58645 3.31519 107 ft 13 kts 360°
2026-05-04 11:53 6.58706 3.31519 107 ft 13 kts 359°
2026-05-04 11:53 6.58807 3.31473 105 ft 13 kts 291°
2026-05-04 11:53 6.58798 3.31384 108 ft 13 kts 244°
2026-05-04 11:55 6.54126 3.31361 1344 ft 187 kts 177°
2026-05-04 11:55 6.52803 3.31357 1841 ft 194 kts 191°
2026-05-04 11:56 6.51604 3.30588 2041 ft 224 kts 233°
2026-05-04 11:56 6.51163 3.29063 2379 ft 244 kts 272°
2026-05-04 11:56 6.51472 3.27355 2856 ft 250 kts 279°
2026-05-04 11:56 6.51800 3.25602 3425 ft 260 kts 284°
2026-05-04 11:57 6.52597 3.23920 3891 ft 276 kts 311°
2026-05-04 11:57 6.54148 3.22800 4654 ft 277 kts 343°
2026-05-04 11:57 6.56032 3.22620 5461 ft 268 kts
2026-05-04 11:57 6.57916 3.22743 6149 ft 275 kts
2026-05-04 11:58 6.59836 3.22833 6837 ft 279 kts
2026-05-04 11:58 6.61780 3.22860 7616 ft 279 kts
2026-05-04 11:58 6.63719 3.22847 8393 ft 279 kts
2026-05-04 11:58 6.65662 3.22820 9135 ft 280 kts
2026-05-04 11:59 6.67631 3.22790 9846 ft 283 kts
2026-05-04 11:59 6.69619 3.22760 10411 ft 292 kts
2026-05-04 11:59 6.71731 3.22733 10593 ft 315 kts
2026-05-04 11:59 6.74007 3.22698 10772 ft 339 kts
2026-05-04 12:00 6.76443 3.22661 10970 ft 360 kts
2026-05-04 12:00 6.78992 3.22618 11474 ft 371 kts
2026-05-04 12:00 6.81596 3.22607 12134 ft 377 kts
2026-05-04 12:00 6.84210 3.22865 12951 ft 377 kts 12°
2026-05-04 12:01 6.86798 3.23266 13861 ft 378 kts 13°
2026-05-04 12:01 6.89407 3.23696 14560 ft 383 kts 13°
2026-05-04 12:02 7.05883 3.26091 18502 ft 413 kts 11°
2026-05-04 12:03 7.08753 3.26493 19051 ft 418 kts 11°
2026-05-04 12:03 7.11638 3.26970 19578 ft 423 kts 12°
2026-05-04 12:03 7.14542 3.27523 20126 ft 427 kts 13°
2026-05-04 12:03 7.17473 3.28103 20664 ft 432 kts 13°
2026-05-04 12:04 7.20437 3.28690 21171 ft 437 kts 12°
2026-05-04 12:04 7.23438 3.29277 21684 ft 441 kts 12°
2026-05-04 12:04 7.26471 3.29862 22173 ft 446 kts 12°
2026-05-04 12:04 7.29534 3.30447 22668 ft 450 kts 11°
2026-05-04 12:05 7.32631 3.31034 23163 ft 454 kts 11°
2026-05-04 12:05 7.35707 3.31616 23618 ft 458 kts 11°
2026-05-04 12:05 7.38892 3.32218 24055 ft 461 kts 11°
2026-05-04 12:05 7.42015 3.32808 24455 ft 464 kts 11°
2026-05-04 12:06 7.45197 3.33410 24873 ft 466 kts 11°
2026-05-04 12:06 7.48393 3.34016 25274 ft 470 kts 11°
2026-05-04 12:06 7.51621 3.34627 25610 ft 474 kts 11°
2026-05-04 12:06 7.54870 3.35243 26007 ft 477 kts 11°
2026-05-04 12:07 7.58145 3.35863 26373 ft 480 kts 11°
2026-05-04 12:07 7.61428 3.36486 26786 ft 481 kts 11°
2026-05-04 12:07 7.64734 3.37112 27132 ft 485 kts 11°
2026-05-04 12:07 7.68058 3.37743 27476 ft 488 kts 10°
2026-05-04 12:08 7.71408 3.38378 27813 ft 491 kts 11°
2026-05-04 12:08 7.74771 3.39016 28151 ft 494 kts 10°
2026-05-04 12:08 7.78158 3.39658 28461 ft 497 kts 10°
2026-05-04 12:08 7.81582 3.40185 28776 ft 499 kts
2026-05-04 12:09 7.85051 3.40467 29057 ft 502 kts
2026-05-04 12:09 7.88552 3.40636 29346 ft 504 kts
2026-05-04 12:09 7.92064 3.40783 29612 ft 507 kts
2026-05-04 12:09 7.95589 3.40950 29893 ft 508 kts
2026-05-04 12:10 7.99127 3.41150 30212 ft 509 kts
2026-05-04 12:10 8.02649 3.41373 30600 ft 506 kts
2026-05-04 12:10 8.06107 3.41605 31017 ft 504 kts
2026-05-04 12:10 8.09598 3.41844 31432 ft 502 kts
2026-05-04 12:11 8.13073 3.42082 31828 ft 500 kts
2026-05-04 12:11 8.16540 3.42318 32182 ft 499 kts
2026-05-04 12:11 8.19999 3.42550 32564 ft 497 kts
2026-05-04 12:11 8.23447 3.42781 32921 ft 496 kts
2026-05-04 12:12 8.26885 3.43011 33292 ft 495 kts
2026-05-04 12:12 8.30318 3.43241 33647 ft 494 kts
2026-05-04 12:12 8.33747 3.43468 33994 ft 493 kts
2026-05-04 12:12 8.37171 3.43689 34221 ft 494 kts
2026-05-04 12:13 8.40602 3.43907 34487 ft 494 kts
2026-05-04 12:14 8.64567 3.45481 34944 ft 489 kts
2026-05-04 12:15 8.71354 3.45948 34949 ft 488 kts
2026-05-04 12:15 8.78133 3.46413 34942 ft 488 kts
2026-05-04 12:16 8.84913 3.46875 34940 ft 489 kts
2026-05-04 12:16 8.91698 3.47339 34943 ft 489 kts
2026-05-04 12:17 8.98505 3.47804 34935 ft 490 kts
2026-05-04 12:17 9.05319 3.48270 34937 ft 491 kts
2026-05-04 12:18 9.12141 3.48736 34932 ft 492 kts
2026-05-04 12:18 9.18974 3.49204 34932 ft 492 kts
2026-05-04 12:19 9.25809 3.49672 34925 ft 492 kts
2026-05-04 12:19 9.32643 3.50140 34926 ft 492 kts
2026-05-04 12:20 9.39434 3.50606 34921 ft 492 kts
2026-05-04 12:20 9.46257 3.51112 34922 ft 492 kts
2026-05-04 12:21 9.52963 3.52532 34915 ft 494 kts 15°
2026-05-04 12:21 9.59535 3.54545 34916 ft 493 kts 15°
2026-05-04 12:22 9.66104 3.56559 34916 ft 493 kts 15°
2026-05-04 12:22 9.72685 3.58543 34911 ft 493 kts 15°
2026-05-04 12:23 9.79267 3.60510 34904 ft 493 kts 15°
2026-05-04 12:23 9.85854 3.62477 34905 ft 493 kts 14°
2026-05-04 12:24 9.92443 3.64446 34905 ft 494 kts 14°
2026-05-04 12:24 9.99038 3.66419 34903 ft 494 kts 14°
2026-05-04 12:25 10.05634 3.68394 34910 ft 494 kts 14°
2026-05-04 12:25 10.12223 3.70369 34907 ft 494 kts 14°
2026-05-04 12:26 10.18821 3.72346 34904 ft 494 kts 14°
2026-05-04 12:26 10.25422 3.74325 34907 ft 495 kts 14°
2026-05-04 12:27 10.32021 3.76304 34907 ft 495 kts 14°
2026-05-04 12:27 10.38631 3.78287 34905 ft 495 kts 14°
2026-05-04 12:28 10.45240 3.80271 34914 ft 495 kts 14°
2026-05-04 12:28 10.51846 3.82255 34908 ft 495 kts 14°
2026-05-04 12:29 10.58448 3.84238 34901 ft 495 kts 14°
2026-05-04 12:29 10.65052 3.86224 34904 ft 495 kts 14°
2026-05-04 12:30 10.71652 3.88209 34901 ft 495 kts 14°
2026-05-04 12:30 10.78253 3.90194 34903 ft 495 kts 14°
2026-05-04 12:31 10.84810 3.92168 34893 ft 495 kts 14°
2026-05-04 12:31 10.91412 3.94156 34893 ft 495 kts 14°
2026-05-04 12:32 11.01314 3.97140 34882 ft 495 kts 14°
2026-05-04 12:33 11.07917 3.99131 34884 ft 495 kts 14°
2026-05-04 12:33 11.14526 4.01124 34882 ft 495 kts 14°
2026-05-04 12:34 11.21128 4.03116 34883 ft 495 kts 14°
2026-05-04 12:34 11.27730 4.05110 34886 ft 495 kts 14°
2026-05-04 12:35 11.34339 4.07106 34878 ft 496 kts 14°
2026-05-04 12:35 11.40957 4.09106 34881 ft 496 kts 14°
2026-05-04 12:36 11.47584 4.11110 34874 ft 497 kts 14°
2026-05-04 12:36 11.54211 4.13114 34878 ft 497 kts 14°
2026-05-04 12:37 11.60846 4.15123 34878 ft 497 kts 14°
2026-05-04 12:37 11.67483 4.17132 34877 ft 497 kts 14°
2026-05-04 12:38 11.74117 4.19143 34879 ft 498 kts 14°
2026-05-04 12:38 11.80713 4.21142 34880 ft 498 kts 14°
2026-05-04 12:39 11.87355 4.23157 34866 ft 497 kts 14°
2026-05-04 12:39 11.93985 4.25169 34872 ft 497 kts 14°
2026-05-04 12:40 12.00610 4.27184 34876 ft 496 kts 14°
2026-05-04 12:40 12.07235 4.29201 34869 ft 497 kts 14°
2026-05-04 12:41 12.13868 4.31221 34880 ft 498 kts 14°
2026-05-04 12:41 12.20525 4.33249 34875 ft 499 kts 14°
2026-05-04 12:42 12.27193 4.35281 34871 ft 500 kts 14°
2026-05-04 12:42 12.33868 4.37317 34865 ft 501 kts 14°
2026-05-04 12:43 12.40549 4.39357 34864 ft 501 kts 14°
2026-05-04 12:43 12.47236 4.41398 34866 ft 501 kts 14°
2026-05-04 12:44 12.53925 4.43441 34861 ft 502 kts 14°
2026-05-04 12:44 12.59482 4.45140 34864 ft 501 kts 14°
2026-05-04 12:45 12.66169 4.47185 34863 ft 501 kts 14°
2026-05-04 12:45 12.72852 4.49230 34862 ft 501 kts 14°
2026-05-04 12:46 12.79533 4.51275 34862 ft 501 kts 13°
2026-05-04 12:46 12.86216 4.53322 34863 ft 501 kts 13°
2026-05-04 12:47 12.92890 4.55368 34860 ft 500 kts 13°
2026-05-04 12:47 12.99556 4.57413 34861 ft 500 kts 13°
2026-05-04 12:48 13.06243 4.59369 34854 ft 498 kts
2026-05-04 12:48 13.13011 4.60897 34860 ft 498 kts
2026-05-04 12:49 13.19777 4.62377 34853 ft 497 kts
2026-05-04 12:49 13.26547 4.63887 34852 ft 497 kts
2026-05-04 12:50 13.33299 4.65411 34847 ft 497 kts
2026-05-04 12:50 13.40056 4.66940 34848 ft 497 kts
2026-05-04 12:51 13.46812 4.68467 34843 ft 497 kts
2026-05-04 12:51 13.53556 4.69992 34843 ft 496 kts
2026-05-04 12:52 13.60301 4.71518 34838 ft 496 kts
2026-05-04 12:52 13.67036 4.73039 34839 ft 495 kts
2026-05-04 12:53 13.73724 4.74546 34839 ft 495 kts
2026-05-04 12:53 13.80454 4.76070 34835 ft 495 kts
2026-05-04 12:54 13.87195 4.77603 34834 ft 497 kts
2026-05-04 12:54 13.93950 4.79141 34837 ft 498 kts
2026-05-04 12:55 14.00730 4.80685 34835 ft 500 kts
2026-05-04 12:55 14.07523 4.82232 34826 ft 500 kts
2026-05-04 12:56 14.14332 4.83784 34823 ft 501 kts
2026-05-04 12:56 14.21137 4.85336 34826 ft 501 kts
2026-05-04 12:57 14.27951 4.86891 34821 ft 501 kts
2026-05-04 12:57 14.34760 4.88446 34822 ft 501 kts
2026-05-04 12:58 14.41564 4.90001 34820 ft 501 kts
2026-05-04 12:58 14.48363 4.91555 34822 ft 500 kts
2026-05-04 12:59 14.55158 4.93109 34820 ft 500 kts
2026-05-04 12:59 14.61952 4.94665 34823 ft 500 kts
2026-05-04 13:00 14.68740 4.96219 34820 ft 500 kts
2026-05-04 13:00 14.75537 4.97778 34827 ft 501 kts
2026-05-04 13:01 14.82350 4.99339 34864 ft 501 kts
2026-05-04 13:01 14.89121 5.00894 34877 ft 502 kts
2026-05-04 13:02 14.95938 5.02459 34861 ft 502 kts
2026-05-04 13:02 15.02751 5.04025 34862 ft 501 kts
2026-05-04 13:03 15.09558 5.05590 34843 ft 501 kts
2026-05-04 13:03 15.16361 5.07156 34820 ft 501 kts
2026-05-04 13:04 15.23159 5.08721 34824 ft 500 kts
2026-05-04 13:04 15.29965 5.10287 34813 ft 501 kts
2026-05-04 13:05 15.36769 5.11852 34809 ft 501 kts
2026-05-04 13:05 15.43576 5.13418 34811 ft 502 kts
2026-05-04 13:06 15.50396 5.14990 34813 ft 502 kts
2026-05-04 13:06 15.57220 5.16563 34809 ft 502 kts
2026-05-04 13:07 15.64042 5.18136 34814 ft 503 kts
2026-05-04 13:07 15.70873 5.19714 34808 ft 503 kts
2026-05-04 13:08 15.77706 5.21293 34799 ft 503 kts
2026-05-04 13:08 15.84536 5.22873 34805 ft 503 kts
2026-05-04 13:09 15.91364 5.24453 34797 ft 503 kts
2026-05-04 13:09 15.98142 5.26021 34804 ft 501 kts
2026-05-04 13:10 16.04937 5.27596 34791 ft 499 kts
2026-05-04 13:10 16.11704 5.29166 34793 ft 497 kts
2026-05-04 13:11 16.18445 5.30730 34793 ft 496 kts
2026-05-04 13:11 16.25180 5.32293 34790 ft 495 kts
2026-05-04 13:12 16.31907 5.33857 34804 ft 495 kts
2026-05-04 13:12 16.38624 5.35418 34792 ft 494 kts
2026-05-04 13:13 16.45334 5.36979 34784 ft 494 kts
2026-05-04 13:13 16.52043 5.38541 34785 ft 493 kts
2026-05-04 13:14 16.58744 5.40102 34792 ft 493 kts
2026-05-04 13:14 16.65445 5.41665 34782 ft 494 kts
2026-05-04 13:15 16.72163 5.43232 34788 ft 496 kts
2026-05-04 13:15 16.78907 5.44806 34788 ft 497 kts
2026-05-04 13:16 16.85665 5.46386 34785 ft 498 kts
2026-05-04 13:16 16.92434 5.47969 34786 ft 499 kts
2026-05-04 13:17 16.99214 5.49556 34790 ft 499 kts
2026-05-04 13:17 17.05994 5.51144 34787 ft 500 kts
2026-05-04 13:18 17.12777 5.52734 34778 ft 500 kts
2026-05-04 13:18 17.19569 5.54327 34779 ft 500 kts
2026-05-04 13:19 17.26310 5.55909 34782 ft 500 kts
2026-05-04 13:19 17.33092 5.57502 34791 ft 500 kts
2026-05-04 13:20 17.39881 5.59098 34777 ft 500 kts
2026-05-04 13:20 17.46677 5.60697 34776 ft 500 kts
2026-05-04 13:21 17.53474 5.62297 34778 ft 501 kts
2026-05-04 13:21 17.60274 5.63900 34782 ft 501 kts
2026-05-04 13:22 17.67072 5.65503 34791 ft 501 kts
2026-05-04 13:22 17.73880 5.67110 34778 ft 501 kts
2026-05-04 13:23 17.80689 5.68721 34778 ft 502 kts
2026-05-04 13:23 17.87374 5.70954 34781 ft 506 kts 15°
2026-05-04 13:24 17.93964 5.73587 34781 ft 507 kts 16°
2026-05-04 13:24 18.00566 5.76227 34780 ft 507 kts 16°
2026-05-04 13:25 18.10484 5.80129 34782 ft 507 kts 16°
2026-05-04 13:25 18.17101 5.82719 34780 ft 508 kts 16°
2026-05-04 13:26 18.23719 5.85313 34780 ft 508 kts 16°
2026-05-04 13:26 18.30337 5.87912 34781 ft 508 kts 16°
2026-05-04 13:27 18.36912 5.90496 34789 ft 508 kts 15°
2026-05-04 13:27 18.43577 5.93118 34781 ft 508 kts 15°
2026-05-04 13:28 18.50148 5.95705 34786 ft 508 kts 15°
2026-05-04 13:28 18.56763 5.98311 34784 ft 507 kts 15°
2026-05-04 13:29 18.63373 6.00918 34787 ft 507 kts 15°
2026-05-04 13:29 18.69983 6.03526 34792 ft 507 kts 15°
2026-05-04 13:30 18.76602 6.06141 34784 ft 508 kts 15°
2026-05-04 13:30 18.83229 6.08760 34788 ft 509 kts 15°
2026-05-04 13:31 18.89864 6.11385 34786 ft 509 kts 15°
2026-05-04 13:31 18.96491 6.14010 34784 ft 508 kts 15°
2026-05-04 13:32 19.03112 6.16634 34801 ft 508 kts 15°
2026-05-04 13:32 19.09731 6.19259 34794 ft 508 kts 15°
2026-05-04 13:33 19.15235 6.21444 34791 ft 508 kts 15°
2026-05-04 13:33 19.21852 6.24073 34788 ft 508 kts 15°
2026-05-04 13:34 19.28463 6.26702 34794 ft 508 kts 15°
2026-05-04 13:34 19.35079 6.29335 34796 ft 508 kts 15°
2026-05-04 13:35 19.44995 6.33285 34798 ft 508 kts 15°
2026-05-04 13:36 19.51609 6.35923 34786 ft 508 kts 15°
2026-05-04 13:36 19.58221 6.38563 34790 ft 508 kts 15°
2026-05-04 13:37 19.64827 6.41202 34787 ft 508 kts 15°
2026-05-04 13:37 19.71441 6.43847 34803 ft 508 kts 15°
2026-05-04 13:38 19.78048 6.46491 34787 ft 508 kts 15°
2026-05-04 13:38 19.84657 6.49139 34782 ft 507 kts 15°
2026-05-04 13:39 19.91254 6.51785 34806 ft 507 kts 15°
2026-05-04 13:39 19.97848 6.54432 34785 ft 506 kts 15°
2026-05-04 13:40 20.04397 6.57062 34796 ft 506 kts 15°
2026-05-04 13:40 20.11135 6.58837 34794 ft 487 kts 354°
2026-05-04 13:41 20.17606 6.57706 34781 ft 466 kts 333°
2026-05-04 13:41 20.23605 6.55067 34792 ft 468 kts 332°
2026-05-04 13:42 20.32718 6.51157 34798 ft 473 kts 333°
2026-05-04 13:42 20.38847 6.48570 34805 ft 474 kts 333°
2026-05-04 13:43 20.44971 6.45991 34790 ft 473 kts 334°
2026-05-04 13:43 20.51074 6.43417 34799 ft 471 kts 333°
2026-05-04 13:44 20.57158 6.40847 34802 ft 470 kts 333°
2026-05-04 13:44 20.63224 6.38280 34805 ft 469 kts 333°
2026-05-04 13:45 20.69279 6.35716 34824 ft 468 kts 334°
2026-05-04 13:45 20.75321 6.33155 34811 ft 466 kts 334°
2026-05-04 13:46 20.81346 6.30600 34809 ft 465 kts 334°
2026-05-04 13:46 20.87349 6.28052 34810 ft 464 kts 334°
2026-05-04 13:47 20.93340 6.25506 34807 ft 463 kts 333°
2026-05-04 13:47 20.99331 6.22958 34819 ft 464 kts 333°
2026-05-04 13:48 21.02342 6.21675 34960 ft 467 kts 333°
2026-05-04 13:48 21.05311 6.20412 35391 ft 463 kts 333°
2026-05-04 13:48 21.08292 6.19145 35793 ft 460 kts 333°
2026-05-04 13:48 21.11263 6.17880 36106 ft 459 kts 333°
2026-05-04 13:49 21.14232 6.16615 36367 ft 460 kts 333°
2026-05-04 13:49 21.17204 6.15346 36604 ft 460 kts 333°
2026-05-04 13:49 21.20182 6.14074 36735 ft 462 kts 332°
2026-05-04 13:49 21.23174 6.12796 36781 ft 463 kts 332°
2026-05-04 13:50 21.29145 6.10246 36808 ft 461 kts 332°
2026-05-04 13:50 21.35084 6.07710 36814 ft 458 kts 332°
2026-05-04 13:51 21.40998 6.05180 36817 ft 457 kts 332°
2026-05-04 13:51 21.46906 6.02649 36829 ft 457 kts 332°
2026-05-04 13:52 21.55775 5.98845 36817 ft 458 kts 332°
2026-05-04 13:53 21.61702 5.96302 36820 ft 459 kts 332°
2026-05-04 13:53 21.67645 5.93749 36825 ft 461 kts 332°
2026-05-04 13:54 21.76585 5.89905 36830 ft 462 kts 332°
2026-05-04 13:55 21.85530 5.86054 36826 ft 461 kts 332°
2026-05-04 13:55 21.94462 5.82204 36827 ft 460 kts 332°
2026-05-04 13:56 22.00361 5.79657 36837 ft 460 kts 332°
2026-05-04 13:57 22.09263 5.75810 36838 ft 459 kts 332°
2026-05-04 13:58 22.21113 5.70681 36845 ft 459 kts 332°
2026-05-04 13:58 22.29999 5.66829 36856 ft 459 kts 332°
2026-05-04 13:59 22.35936 5.64251 36887 ft 460 kts 332°
2026-05-04 14:00 22.44838 5.60384 36872 ft 460 kts 332°
2026-05-04 14:00 22.53741 5.56510 36954 ft 459 kts 332°
2026-05-04 14:01 22.59666 5.53928 37004 ft 459 kts 332°
2026-05-04 14:02 22.68494 5.50078 37115 ft 458 kts 332°
2026-05-04 14:02 22.74398 5.47500 37162 ft 457 kts 332°
2026-05-04 14:03 22.80531 5.45541 37160 ft 467 kts 345°
2026-05-04 14:03 22.87086 5.45266 37161 ft 478 kts 359°
2026-05-04 14:04 22.97032 5.46459 37107 ft 480 kts
2026-05-04 14:04 23.03654 5.47278 37068 ft 479 kts 359°
2026-05-04 14:05 23.13594 5.48431 36979 ft 478 kts 359°
2026-05-04 14:06 23.20164 5.49172 36967 ft 478 kts 359°
2026-05-04 14:06 23.26833 5.49932 36959 ft 478 kts 359°
2026-05-04 14:07 23.33404 5.50684 36990 ft 479 kts 359°
2026-05-04 14:07 23.40030 5.51442 36954 ft 478 kts 359°
2026-05-04 14:08 23.46648 5.52203 36960 ft 477 kts 359°
2026-05-04 14:08 23.53234 5.52955 36926 ft 477 kts 359°
2026-05-04 14:09 23.63121 5.54087 36934 ft 475 kts 359°
2026-05-04 14:10 23.72984 5.55221 36926 ft 475 kts 359°